User: anonymous   Login
Location: Alfortville
(48.8058°N, 2.4204°E)
Time: 18:51:18
(UTC+00:00)
Language:

Cosmos 2219 Rocket - Orbit

View from above orbital plane
View from above orbital plane
View from above satellite
View from above satellite

Ground track
Ground track

The orbit data is extracted from the following two-line orbital elements,

1 22220U 92076B   22020.76668718  .00000225  00000-0  13706-3 0  9996
2 22220  71.0008 125.7647 0014856 240.0723 233.1566 14.16483499508132
Epoch (UTC): 20 January 2022 18:24:01
Eccentricity: 0.0014856
inclination: 71.0008°
perigee height: 826 km
apogee height: 848 km
right ascension of ascending node: 125.7647°
argument of perigee: 240.0723°
revolutions per day: 14.16483499
mean anomaly at epoch: 233.1566°
orbit number at epoch: 50813

The dashed part of the orbit path shows where the satellite is in the earth's shadow,  

DLR